[[{"header":{"parameterUnit":"m.s-1","parameterCategory":1,"la1":30.2991,"la2":30.254,"lo1":-89.0895,"lo2":-89.0444,"dy":0.0017,"dx":0.0017,"nx":28,"ny":28,"refTime":"2024-05-04T09:00:00:Z","depth":0,"parameterNumber":2,"parameterNumberName":"U-component_of_WINDS"},"data":[0,0,0,0,0,0,0,0,0,0,0,0,0,0,0,0,0,0,0,0,0,0,0,0,0,0,0,0,0,0,0,0,0,0,0,0,0,0,0,0,0,0,0,0,0,0,0,0,0,0,0,0,0,0,0,0,0,0,-1.5727,-1.5726,0,-1.5654,-1.5654,-1.5653,-1.5547,-1.5545,-1.5544,-1.5542,-1.5468,-1.5468,-1.5468,0,0,0,0,0,0,0,0,0,0,0,0,0,-1.5775,-1.5775,-1.5727,-1.5726,-1.5725,-1.5655,-1.5654,-1.5653,-1.5548,-1.5545,-1.5543,-1.5541,-1.5468,-1.5468,-1.5468,0,0,0,0,0,0,0,0,0,0,0,0,0,-1.5734,-1.5775,-1.5727,-1.5664,-1.5658,-1.5655,-1.5654,-1.5652,-1.5548,-1.5545,-1.5543,-1.554,-1.5469,-1.5468,-1.5468,-1.5521,0,0,-1.5467,-1.5467,0,0,0,0,0,0,0,0,-1.5736,-1.5732,-1.5674,-1.5669,-1.5662,-1.5607,-1.5643,-1.5608,-1.5549,-1.559,-1.5542,-1.5539,-1.5517,-1.5512,-1.5505,-1.5517,-1.5514,-1.5467,-1.5466,-1.5466,-1.5466,0,0,0,0,0,0,0,-1.5739,-1.5734,-1.5698,-1.5674,-1.5666,-1.564,-1.5631,-1.5636,-1.557,-1.5586,-1.5578,-1.5571,-1.5513,-1.5505,-1.5502,-1.5513,-1.5467,-1.5466,-1.5466,-1.5466,-1.5563,-1.5566,0,0,0,0,0,0,-1.5751,-1.5738,-1.5701,-1.5696,-1.5693,-1.5641,-1.5631,-1.5627,-1.5569,-1.5558,-1.5574,-1.5566,-1.5507,-1.5503,-1.5499,-1.5556,-1.5466,-1.5466,-1.5466,-1.5561,-1.5564,-1.5567,0,0,0,0,0,0,-1.5753,-1.5749,-1.5704,-1.5715,-1.5707,-1.5643,-1.564,-1.5627,-1.562,-1.556,-1.5547,-1.5578,-1.5505,-1.55,-1.5516,-1.5552,-1.5466,-1.5465,-1.5557,-1.5562,-1.5566,-1.5671,0,0,0,0,0,0,-1.5754,-1.575,-1.5769,-1.5716,-1.5707,-1.5722,-1.5642,-1.5628,-1.5619,-1.5609,-1.5561,-1.555,-1.5502,-1.5517,-1.5515,-1.555,-1.5465,-1.5554,-1.5559,-1.5564,-1.5664,-1.5678,-1.569,0,0,0,0,0,-1.5757,-1.5802,-1.5771,-1.5767,-1.573,-1.5724,-1.5719,-1.5662,-1.5623,-1.5642,-1.5603,-1.5552,-1.5549,-1.5519,-1.5517,-1.5552,-1.5551,-1.5558,-1.5564,-1.5658,-1.5675,-1.569,0,0,0,0,0,0,-1.5862,-1.5794,-1.5759,-1.5788,-1.5763,-1.5706,-1.5728,-1.5683,-1.5668,-1.5659,-1.5591,-1.5581,-1.5605,-1.558,-1.5549,-1.5599,-1.5542,-1.5548,-1.5614,-1.563,-1.5644,-1.5649,-1.5465,0,0,0,0,0,-1.5889,-1.589,-1.583,-1.5862,-1.5851,-1.5792,-1.5788,-1.5747,-1.5717,-1.5706,-1.5668,-1.5642,-1.5634,-1.5631,-1.5621,-1.566,-1.5647,-1.5683,-1.5696,-1.5707,-1.5713,-1.573,-1.5745,-1.5588,-1.5588,-1.5588,0,0,-1.5944,-1.5907,-1.5912,-1.5883,-1.5858,-1.586,-1.5784,-1.579,-1.579,-1.5707,-1.5719,-1.5691,-1.5657,-1.5684,-1.5694,-1.5664,-1.5754,-1.5715,-1.5725,-1.5724,-1.5738,-1.5753,-1.5767,-1.5592,-1.5591,-1.5591,0,0,-1.6045,-1.6018,-1.6041,-1.6018,-1.5981,-1.5941,-1.5947,-1.5897,-1.5875,-1.5886,-1.5823,-1.5824,-1.5813,-1.5791,-1.5778,-1.5871,-1.5823,-1.587,-1.5939,-1.5957,-1.5969,-1.598,-1.6012,-1.6024,-1.5876,-1.5877,-1.5877,0,-1.6119,-1.6119,-1.6059,-1.6068,-1.6057,-1.5981,-1.6004,-1.5984,-1.5947,-1.5941,-1.5907,-1.5892,-1.5864,-1.5884,-1.5907,-1.5899,-1.5903,-1.5875,-1.5972,-1.5982,-1.5991,-1.6021,-1.6033,-1.5883,-1.5882,-1.5881,-1.5881,0,-1.6211,-1.6212,-1.6235,-1.62,-1.6192,-1.6208,-1.615,-1.6148,-1.6108,-1.6072,-1.6085,-1.6048,-1.6029,-1.6031,-1.5992,-1.6046,-1.6028,-1.5985,-1.5926,-1.6013,-1.604,-1.6051,-1.5891,-1.5889,-1.5887,-1.5886,0,0,-1.6375,-1.6307,-1.6316,-1.6299,-1.6253,-1.6253,-1.6266,-1.6247,-1.6246,-1.6223,-1.6231,-1.6224,-1.6184,-1.6169,-1.6128,-1.6143,-1.6218,-1.6098,-1.6096,-1.612,-1.6273,-1.6305,-1.6319,-1.6186,-1.6188,-1.619,-1.6275,0,-1.6467,-1.6484,-1.643,-1.6461,-1.6461,-1.6389,-1.64,-1.6373,-1.634,-1.6335,-1.6299,-1.6294,-1.6242,-1.6232,-1.6245,-1.6206,-1.6247,-1.62,-1.6192,-1.6193,-1.6202,-1.6333,-1.6367,-1.645,-1.6286,-1.6287,-1.6289,0,-1.6575,-1.6557,-1.6588,-1.654,-1.6538,-1.6549,-1.6526,-1.6523,-1.6491,-1.6466,-1.645,-1.6401,-1.641,-1.6355,-1.6365,-1.6334,-1.6328,-1.6308,-1.631,-1.6306,-1.6245,-1.6332,-1.6475,-1.6487,-1.6305,-1.6303,-1.6302,0,-1.6691,-1.6674,-1.669,-1.6678,-1.6622,-1.6631,-1.6609,-1.6574,-1.6566,-1.6547,-1.654,-1.6523,-1.6513,-1.6501,-1.6448,-1.6413,-1.6465,-1.6405,-1.6443,-1.6445,-1.6456,-1.6456,-1.6599,-1.6455,-1.6455,-1.6455,-1.6455,0,-1.6797,-1.6819,-1.6741,-1.6751,-1.6773,-1.6711,-1.6734,-1.6704,-1.6674,-1.6676,-1.6614,-1.6618,-1.6549,-1.6545,-1.6504,-1.6518,-1.6515,-1.6494,-1.6483,-1.6499,-1.6501,-1.6493,-1.6485,-1.6458,-1.6457,-1.6457,-1.6456,0,-1.6929,-1.6878,-1.6891,-1.6837,-1.6824,-1.6843,-1.6796,-1.6803,-1.6766,-1.677,-1.6767,-1.671,-1.6701,-1.6648,-1.6629,-1.6601,-1.663,-1.6608,-1.664,-1.6633,-1.6673,-1.6669,-1.6814,-1.683,-1.6678,-1.668,-1.6681,0,-1.7,-1.7014,-1.6962,-1.6959,-1.694,-1.6936,-1.6927,-1.6867,-1.686,-1.6825,-1.6836,-1.6823,-1.6809,-1.6799,-1.6755,-1.6739,-1.6716,-1.6768,-1.6713,-1.6728,-1.6714,-1.6714,-1.6714,-1.6779,-1.6781,-1.6783,-1.6784,0,-1.713,-1.7104,-1.7094,-1.7075,-1.7066,-1.7048,-1.7027,-1.7028,-1.6961,-1.6957,-1.6948,-1.6938,-1.6917,-1.6904,-1.6881,-1.6857,-1.6809,-1.6802,-1.6809,-1.6825,-1.6843,-1.6832,-1.6671,-1.6798,-1.6797,-1.6796,-1.6795,-1.6794,-1.7232,-1.7241,-1.7206,-1.7196,-1.7174,-1.7155,-1.7158,-1.7122,-1.7113,-1.7092,-1.7057,-1.7053,-1.7019,-1.6983,-1.6963,-1.6959,-1.6931,-1.6942,-1.6945,-1.6948,-1.6956,-1.6845,-1.6954,-1.6954,-1.6953,-1.6953,-1.6953,0,-1.7357,-1.7331,-1.7323,-1.7295,-1.7287,-1.7244,-1.7217,-1.7214,-1.7211,-1.7184,-1.7172,-1.7161,-1.7148,-1.7104,-1.7086,-1.7091,-1.7069,-1.7089,-1.7087,-1.7082,-1.6983,-1.6977,-1.7107,-1.7107,-1.7107,-1.7107,-1.7107,-1.7107,-1.7422,-1.7435,-1.7405,-1.7406,-1.7379,-1.7374,-1.7363,-1.7345,-1.7323,-1.7314,-1.7303,-1.7274,-1.724,-1.722,-1.7206,-1.7193,-1.7189,-1.7216,-1.7196,-1.7104,-1.7089,-1.7075,-1.7069,-1.7216,-1.7216,-1.7294,-1.7295,-1.7296]},{"header":{"parameterUnit":"m.s-1","parameterCategory":1,"la1":30.2991,"la2":30.254,"lo1":-89.0895,"lo2":-89.0444,"dy":0.0017,"dx":0.0017,"nx":28,"ny":28,"refTime":"2024-05-04T09:00:00:Z","depth":0,"parameterNumber":3,"parameterNumberName":"V-component_of_WINDS"},"data":[0,0,0,0,0,0,0,0,0,0,0,0,0,0,0,0,0,0,0,0,0,0,0,0,0,0,0,0,0,0,0,0,0,0,0,0,0,0,0,0,0,0,0,0,0,0,0,0,0,0,0,0,0,0,0,0,0,0,0.22,0.2198,0,0.2023,0.2021,0.2019,0.1875,0.1873,0.1872,0.187,0.1688,0.1685,0.1682,0,0,0,0,0,0,0,0,0,0,0,0,0,0.2411,0.2408,0.22,0.2198,0.2196,0.2024,0.2021,0.2019,0.1875,0.1873,0.1871,0.187,0.1689,0.1685,0.1681,0,0,0,0,0,0,0,0,0,0,0,0,0,0.2286,0.2407,0.22,0.2103,0.2093,0.2024,0.2021,0.2018,0.1875,0.1873,0.1871,0.1869,0.1691,0.1686,0.1681,0.1694,0,0,0.1665,0.1663,0,0,0,0,0,0,0,0,0.2293,0.2278,0.212,0.211,0.2098,0.1969,0.2029,0.1909,0.1876,0.1958,0.187,0.1868,0.1783,0.177,0.1742,0.1685,0.1678,0.1664,0.1661,0.1659,0.1658,0,0,0,0,0,0,0,0.2302,0.2285,0.213,0.2118,0.2104,0.2068,0.2048,0.2006,0.1885,0.1951,0.194,0.1921,0.1777,0.1748,0.1737,0.1675,0.1665,0.166,0.1657,0.1655,0.1621,0.1623,0,0,0,0,0,0,0.2326,0.2293,0.2136,0.2125,0.2192,0.2066,0.2043,0.2013,0.1885,0.1864,0.1923,0.1915,0.1758,0.1743,0.173,0.1738,0.1659,0.1654,0.1651,0.1619,0.1621,0.1624,0,0,0,0,0,0,0.2331,0.2313,0.2143,0.2206,0.2181,0.2065,0.2031,0.201,0.1981,0.1865,0.1842,0.1915,0.1755,0.1737,0.1704,0.1729,0.1652,0.1647,0.1616,0.162,0.1623,0.1753,0,0,0,0,0,0,0.2338,0.2316,0.232,0.2207,0.2179,0.2121,0.2033,0.2008,0.1972,0.196,0.1851,0.1831,0.1752,0.1713,0.1699,0.1721,0.1643,0.1613,0.1618,0.1621,0.1746,0.1761,0.1773,0,0,0,0,0,0.2346,0.2363,0.2321,0.2303,0.2181,0.2122,0.2106,0.2015,0.1975,0.1978,0.1903,0.1835,0.1729,0.1711,0.1694,0.1715,0.1611,0.1616,0.1621,0.174,0.1758,0.1773,0,0,0,0,0,0,0.2481,0.2347,0.2298,0.228,0.2214,0.2098,0.2099,0.2036,0.198,0.1971,0.186,0.1836,0.1816,0.1761,0.1743,0.1721,0.1661,0.1663,0.1757,0.1773,0.1786,0.18,0.1639,0,0,0,0,0,0.2509,0.2473,0.2357,0.2352,0.2321,0.2217,0.2187,0.2123,0.205,0.2021,0.1944,0.1876,0.1826,0.1797,0.1745,0.1738,0.1712,0.1744,0.1757,0.1769,0.1772,0.1765,0.1777,0.164,0.164,0.164,0,0,0.2566,0.2488,0.2472,0.2377,0.2318,0.2284,0.2194,0.216,0.2133,0.2015,0.198,0.1922,0.1837,0.1818,0.1805,0.1772,0.1804,0.1775,0.1785,0.1782,0.1771,0.1784,0.1796,0.1643,0.1643,0.1642,0,0,0.2652,0.2589,0.2578,0.2522,0.2434,0.2365,0.2363,0.2256,0.2213,0.2176,0.2088,0.2054,0.1972,0.1916,0.1877,0.1943,0.1878,0.1929,0.2,0.1994,0.2005,0.2014,0.2038,0.2048,0.1933,0.1933,0.1933,0,0.2733,0.2677,0.2581,0.2553,0.2514,0.2407,0.2396,0.2345,0.2246,0.2221,0.2186,0.2081,0.2017,0.1983,0.2,0.1972,0.1966,0.1941,0.2011,0.2019,0.2026,0.2048,0.2058,0.194,0.1939,0.1938,0.1938,0,0.2782,0.2745,0.2747,0.2654,0.2616,0.2596,0.2497,0.2469,0.2409,0.2343,0.2307,0.2226,0.2157,0.2144,0.2085,0.2102,0.2085,0.2032,0.1969,0.2048,0.2067,0.2074,0.195,0.1947,0.1945,0.1944,0,0,0.2947,0.2803,0.2805,0.2763,0.2659,0.2628,0.2604,0.2537,0.2516,0.2451,0.2428,0.2362,0.2313,0.2269,0.2202,0.2197,0.2256,0.2144,0.214,0.2168,0.2271,0.2313,0.2324,0.2212,0.2213,0.2214,0.2279,0,0.3017,0.2968,0.2881,0.286,0.2825,0.2724,0.2703,0.2637,0.2576,0.2536,0.2467,0.2423,0.2361,0.2333,0.2324,0.2251,0.2275,0.2245,0.219,0.2189,0.2215,0.2333,0.2376,0.2441,0.2285,0.2287,0.2287,0,0.3091,0.3033,0.301,0.291,0.2892,0.2875,0.2807,0.2771,0.2694,0.265,0.2602,0.2529,0.2498,0.2442,0.2398,0.2379,0.2352,0.2313,0.2313,0.2304,0.2244,0.2329,0.2459,0.247,0.2298,0.2297,0.2296,0,0.3215,0.3131,0.3106,0.3073,0.2955,0.2946,0.2897,0.2818,0.2784,0.2725,0.2701,0.264,0.2606,0.2559,0.2472,0.2439,0.2439,0.2374,0.2401,0.2403,0.2405,0.2406,0.2534,0.2387,0.2387,0.2387,0.2387,0,0.3301,0.3291,0.3161,0.3146,0.3131,0.3031,0.302,0.2961,0.2892,0.2864,0.2772,0.2747,0.2633,0.2595,0.2526,0.2501,0.2486,0.245,0.2432,0.2458,0.2463,0.2439,0.2432,0.239,0.2389,0.2389,0.2388,0,0.3437,0.3349,0.3316,0.3208,0.3181,0.3175,0.3082,0.3064,0.2997,0.2963,0.2949,0.2844,0.2795,0.2703,0.2627,0.2581,0.2571,0.2539,0.2597,0.2586,0.2618,0.2617,0.2735,0.2746,0.2593,0.2595,0.2596,0,0.3498,0.3488,0.338,0.3355,0.3309,0.327,0.3235,0.3137,0.3104,0.3017,0.301,0.2953,0.2903,0.2829,0.2746,0.2688,0.2655,0.27,0.2645,0.2673,0.2656,0.2658,0.2657,0.2713,0.2715,0.2717,0.2718,0,0.3617,0.3574,0.3528,0.3467,0.3428,0.3375,0.3317,0.3302,0.319,0.3159,0.3108,0.3069,0.2993,0.2938,0.2869,0.2817,0.275,0.2736,0.2739,0.2766,0.2801,0.2783,0.2632,0.2734,0.2732,0.2731,0.273,0.2729,0.3716,0.3703,0.3626,0.3578,0.3524,0.3473,0.3451,0.3382,0.3338,0.3269,0.3213,0.3168,0.3092,0.2991,0.2944,0.2907,0.2875,0.2879,0.288,0.2883,0.2894,0.2807,0.2894,0.2893,0.2892,0.2892,0.2891,0,0.3831,0.3776,0.3733,0.3656,0.3619,0.3559,0.3492,0.3465,0.3426,0.3361,0.3314,0.3257,0.3204,0.3117,0.3057,0.3044,0.3012,0.3032,0.3032,0.3021,0.2926,0.293,0.3059,0.3059,0.3059,0.3059,0.3059,0.3059,0.3886,0.3861,0.381,0.3757,0.3702,0.3657,0.3625,0.3577,0.3525,0.3465,0.3421,0.3365,0.3292,0.3226,0.3175,0.3151,0.3134,0.3164,0.3131,0.3043,0.3028,0.3013,0.3016,0.3161,0.3161,0.3228,0.3229,0.323]}]]